Location: Neuvy Saint Sepulchre
(46.5953°N, 1.8122°E)
Time: 13:13:17
(UTC+02:00)

ISS - Pass Details

Date: 02 October 2022
Orbit: 414 x 417 km, 51.6° (Epoch: 01 October)

Event Time Altitude Azimuth Distance (km) Brightness Sun altitude
Rises 21:16:09 0° 292° (WNW) 2,360 1.7 -18.8°
Reaches altitude 10° 21:18:24 10° 280° (W) 1,494 0.3 -19.2°
Maximum altitude 21:21:20 28° 219° (SW) 805 -2.2 -19.6°
Enters shadow 21:22:08 25° 193° (SSW) 872 -2.2 -19.8°
